Regional Weather Roundup
Issued by NWS Columbia, SC

Home | Current Version | Previous Version | Text Only | Print | Product List | Glossary On
Versions: 1 2 3 4 5 6 7 8 9 10 11 12 13 14 15 16 17 18 19 20 21 22 23 24 25 26 27 28 29 30 31 32 33 34 35 36 37 38 39 40 41 42 43 44 45 46 47 48 49 50
857
ASUS42 KCAE 291410
RWRCAE
REGIONAL WEATHER ROUNDUP
NATIONAL WEATHER SERVICE COLUMBIA SC
1000 AM EDT FRI APR 29 2016

NOTE: "FAIR" INDICATES FEW OR NO CLOUDS BELOW 12,000 FEET WITH NO
SIGNIFICANT WEATHER AND/OR OBSTRUCTIONS TO VISIBILITY.

NOT ALL STATIONS ARE QUALITY CONTROLLED BY THE NATIONAL
WEATHER SERVICE. USE DATA WITH CAUTION...ESPECIALLY
DEWPOINT OBSERVATIONS.

SCZ001>056-GAZ040-063>065-077-291500-
...UPSTATE SOUTH CAROLINA...

CITY           SKY/WX    TMP DP  RH WIND       PRES   REMARKS
ANDERSON       SUNNY     76  53  44 NE7       30.01F
LIBERTY        SUNNY     72  57  58 CALM      30.01S
SPARTANBURG    SUNNY     73  46  38 N6        30.01F
CLEMSON        MOSUNNY   74  57  55 CALM      30.02F
GREENVILLE     SUNNY     76  49  38 N15       30.02F
GREENWOOD      SUNNY     77  52  41 N9        30.02F
GREER          SUNNY     76  48  37 VRB7G20   30.01F
ROCK HILL      SUNNY     72  60  66 N8        30.01F
CHESTER        SUNNY     72  57  60 N7        30.01F
LAURENS        SUNNY     75  55  50 NE7       30.01F


...CENTRAL SOUTH CAROLINA...

CITY           SKY/WX    TMP DP  RH WIND       PRES   REMARKS
COLUMBIA APT   MOSUNNY   80  57  45 NE7       29.98S
COLUMBIA OWENS SUNNY     79  59  50 VRB6      30.00S
MCENTIRE ANGB  MOSUNNY   78  63  59 N2        29.99S
ORANGEBURG     SUNNY     80  62  54 N8        29.99S
SUMTER SHAW    SUNNY     75  64  67 N7        29.96S
NEWBERRY       SUNNY     75  55  50 N6        30.03F
AIKEN          FAIR      77  55  47 N6        30.03F
BARNWELL       FAIR      81  68  65 CALM      30.00S
CAMDEN         FAIR      73  61  64 N5        30.00S
LANCASTER      SUNNY     72  64  78 NE3       30.01F
WINNSBORO      SUNNY     73  61  64 N6        30.00F


...EASTERN AND COASTAL SOUTH CAROLINA...

CITY           SKY/WX    TMP DP  RH WIND       PRES   REMARKS
MYRTLE BEACH   MOSUNNY   77  64  65 NW12      29.98R
N MYRTLE BCH   MOSUNNY   75  67  76 N9        29.96R
CONWAY         FAIR      73  68  83 NW6       29.97R HAZE
MARION         CLOUDY    64  64 100 N8        29.99R FOG
HARTSVILLE     FAIR      72  63  73 N5        29.99S
FLORENCE       MOSUNNY   72  65  78 N5        29.99S
CHARLESTON APT SUNNY     78  67  68 NW7       29.97S
MOUNT PLEASANT FAIR      79  68  69 NW9       29.97S
WALTERBORO     SUNNY     79  66  65 NW6       29.99S
BEAUFORT       SUNNY     80  67  64 NW8       29.98F


...EASTERN GEORGIA...

CITY           SKY/WX    TMP DP  RH WIND       PRES   REMARKS
AUGUSTA BUSH F SUNNY     79  60  52 N9        29.99F
AUGUSTA DANIEL SUNNY     79  56  45 N10       30.01F
THOMSON        SUNNY     77  64  64 NE6       30.05F
WASHINGTON     FAIR      73  59  60 CALM      30.01F
CLAXTON        FAIR      79  71  76 W5        30.00F
SYLVANIA       SUNNY     79  69  71 N6        30.00F
STATESBORO     SUNNY     82  71  67 NW6       30.00S
SAVANNAH       MOSUNNY   79  66  64 NW7       29.99F


...SOUTHERN NORTH CAROLINA...

CITY           SKY/WX    TMP DP  RH WIND       PRES   REMARKS
CHARLOTTE      MOSUNNY   73  60  63 VRB5      30.01F
MONROE         SUNNY     74  59  59 VRB7      30.00F
WADESBORO      SUNNY     72  59  63 NW7       30.00F
ROCKINGHAM     SUNNY     72  64  74 N7        30.00R
RUTHERFORDTON  SUNNY     74  52  46 N7        30.02F
ASHEVILLE      CLOUDY    69  45  41 N13G22    30.07F

$$




USA.gov is the U.S. government's official web portal to all federal, state and local government web resources and services.